CZ-4 DEB, 35331

Orbit data source: Space-Track

CZ-4 DEB, 35331 is space debris in SSO originally from a launch on Thu, 14 Oct 1999 UTC launched from the Taiyaun Space Center, China (TSC). Debris objects in space refer to the collection of defunct objects orbiting the Earth. Examples of debris include non-operational satellites, rocket bodies, and fragments generated from explosions, collisions, or faulty payload assembly.

Loading next visibility...
Identifier
35331, 1999-057SK
Orbit
SSO
Country
Flag of CNCN / PRC
Related business
Manufacturer
Unknown
Mission
Spacecraft
Bus & Motor
Unknown
Mass
Unknown
Launch date (UTC)
1999-10-14 (26 years ago)
Launch vehicle
Unknown
Launch site
Taiyaun Space Center, China (TSC)
Object type
Payload
Rocket body
Debris
Shape & HBR
Unknown shape, 0.1 m
Radar Cross Section
Small (<0.1 m²)

Expand to show TLE details & history
Last TLE update: 1 day ago

TLE from 1 day ago
0 CZ-4 DEB
1 35331U 99057SK  25302.50850758  .00012377  00000-0  18552-2 0  9998
2 35331  98.5408  41.4589 0074555 323.1133  99.4714 14.72881599624217
Epoch: 2025-10-29T12:12Z
TLE epoch observation values (Epoch: 2025-10-29T12:12:15.054Z)
Latitude
62.27812°
Longitude
163.80196°
Altitude
671.553 km
Speed
7.522 km/s
True Right ascension
01h 39m 46s
True Declination
62° 08' 04"
Sunlit
Object was in full shadow at epoch
Visualization orbit readout
Latitude
Unknown
Longitude
Unknown
Altitude
Unknown
Speed
Unknown
Apparent Right ascension
Unknown
Apparent Declination
Unknown
Sunlit
N/A
Visualization observer readout
Local Sidereal Time
16:42:14
Azimuth
Unknown
Elevation
Unknown
Doppler factor
Unknown
Orbital elements
Apogee altitude
701.354 km
Perigee altitude
596.573 km
Semi-major axis
7,027.101 km
Eccentricity
0.00746
Inclination
98.5408°
RAAN
41.4589°
Arg. of periapsis
323.1133°
True anomaly
100.31277°
Mean anomaly
99.4714°
Eccentric anomaly
99.89222°
Mean motion
3.6845 °/min
Orbital period
97.71 mins
BSTAR
0.0018552
Loading maneuver chart data...
Computing Atmospheric mass density...

Documentation

Showing up to 5 results
|